Regional Weather Roundup
Issued by NWS

Home | Current Version | Previous Version | Text Only | Print | Product List | Glossary Off
Versions: 1 2 3 4 5 6 7 8 9 10 11 12 13 14 15 16 17 18 19 20 21 22 23 24 25 26 27 28 29 30 31 32 33 34 35 36 37 38 39 40 41 42 43 44 45 46 47 48 49 50

000
ASUS43 KFSD 200810
RWRSD

WEATHER ROUNDUP FOR SOUTH DAKOTA
NATIONAL WEATHER SERVICE SIOUX FALLS SD
300 AM CDT SUN AUG 20 2017

NOTE: "FAIR" INDICATES FEW OR NO CLOUDS BELOW 12,000 FEET WITH NO
SIGNIFICANT WEATHER AND/OR OBSTRUCTIONS TO VISIBILITY.


SDZ001>005-009-010-012>017-200900-
NORTHWEST AND NORTH CENTRAL SOUTH DAKOTA

CITY           SKY/WX    TMP DP  RH WIND       PRES   REMARKS
BUFFALO          N/A     62  45  53 NE20      29.92F
FAITH            N/A     66  51  58 N14       29.98R
MOBRIDGE       CLOUDY    69  53  56 N13       29.87R
$$

SDZ012>016-024>037-041>051-057-063-072>074-200900-
SOUTHWEST AND SOUTH CENTRAL SOUTH DAKOTA

CITY           SKY/WX    TMP DP  RH WIND       PRES   REMARKS
RAPID CTY ARPT CLEAR     63  44  50 NW12      29.99R
PIERRE         CLOUDY    73  56  54 N30G38    29.88R
CUSTER         CLEAR     60  35  39 E12       30.09S
ELLSWORTH AFB  CLEAR     67  44  42 N5        29.98R
PHILIP         CLEAR     72  51  47 NE22G31   29.88S
PINE RIDGE     CLEAR     56  50  80 S3        29.95R
SPEARFISH      FAIR      63  43  48 SE6       30.03F
WINNER         FAIR      66  62  87 NE7       29.85R
$$

SDZ004>011-016>023-039-040-200900-
NORTHEAST SOUTH DAKOTA

CITY           SKY/WX    TMP DP  RH WIND       PRES   REMARKS
ABERDEEN       PTCLDY    62  62 100 NW5       29.84R
WATERTOWN      CLEAR     64  63  96 S6        29.85S
BROOKINGS      CLOUDY    64  63  96 N3        29.85S
SISSETON         N/A     63  62  97 E3        29.79F
$$

SDZ017-020-022-023-036>040-048>070-200900-
SOUTHEAST SOUTH DAKOTA

CITY           SKY/WX    TMP DP  RH WIND       PRES   REMARKS
SIOUX FALLS    CLOUDY    73  61  65 SW8       29.83F
HURON          CLEAR     66  64  93 S3        29.83S
CHAMBERLAIN    CLEAR     65  65 100 E5        29.83S
MITCHELL       CLOUDY    67  64  90 E3        29.83S
YANKTON        CLOUDY    69  64  84 SE7       29.84F
$$

ABBREVIATIONS USED IN REMARKS
   TC - TEMPERATURE IN CELSIUS
  WCI - WIND CHILL INDEX
   HX - HEAT INDEX
  VSB - VISIBILITY





USA.gov is the U.S. government's official web portal to all federal, state and local government web resources and services.